Location: Aalsum
(53.3404°N, 6.0062°E)
Time: 09:20:31
(UTC+00:00)

NOSS 2-1 (E) - Pass Details

Date: 28 January 2023
Orbit: 400 x 1778 km, 63.3° (Epoch: 09 March)

Event Time Altitude Azimuth Distance (km) Brightness Sun altitude
Rises 18:02:54 0° 310° (NW) 2,662 7.5 -16.5°
Reaches altitude 10° 18:04:50 10° 306° (NW) 1,892 6.7 -16.8°
Maximum altitude 18:08:58 57° 228° (SW) 835 4.4 -17.4°
Drops below altitude 10° 18:14:44 10° 151° (SSE) 2,631 6.5 -18.3°
Sets 18:17:49 0° 148° (SSE) 3,820 7.3 -18.7°
